Time,TemperatureF,DewpointF,PressureIn,WindDirection,WindDirectionDegrees,WindSpeedMPH,WindSpeedGustMPH,Humidity,HourlyPrecipIn,Conditions,Clouds,dailyrainin,SoftwareType,DateUTC
2013-03-08 00:02:00,29.0,28.0,-100.00,SE,139,3.0,8.0,89,0.00,,,-99.99,,2013-03-08 05:02:00,
2013-03-08 00:12:00,31.0,28.0,-100.00,South,182,4.0,8.0,88,0.00,,,-99.99,,2013-03-08 05:12:00,
2013-03-08 00:22:00,31.0,28.0,-100.00,South,180,4.0,8.0,86,0.00,,,-99.99,,2013-03-08 05:22:00,
2013-03-08 00:33:00,31.0,28.0,-100.00,South,170,4.0,8.0,86,0.00,,,-99.99,,2013-03-08 05:33:00,
2013-03-08 00:42:00,32.0,28.0,-100.00,SSE,158,4.0,8.0,86,0.00,,,-99.99,,2013-03-08 05:42:00,
2013-03-08 00:52:00,32.0,28.0,-100.00,South,169,4.0,8.0,85,0.00,,,-99.99,,2013-03-08 05:52:00,
2013-03-08 01:02:00,31.0,28.0,-100.00,SE,144,3.0,8.0,86,0.00,,,-99.99,,2013-03-08 06:02:00,
2013-03-08 01:11:00,30.0,27.0,-100.00,South,184,4.0,8.0,86,0.00,,,-99.99,,2013-03-08 06:11:00,
2013-03-08 01:22:00,32.0,30.0,-100.00,SE,142,4.0,8.0,88,0.00,,,-99.99,,2013-03-08 06:22:00,
2013-03-08 01:32:00,32.0,30.0,-100.00,SSE,168,4.0,8.0,88,0.00,,,-99.99,,2013-03-08 06:32:00,
2013-03-08 01:42:00,31.0,28.0,-100.00,SE,131,6.0,8.0,88,0.00,,,-99.99,,2013-03-08 06:42:00,
2013-03-08 01:51:00,33.0,30.0,-100.00,SE,136,5.0,8.0,89,0.00,,,-99.99,,2013-03-08 06:51:00,
2013-03-08 02:01:00,29.0,27.0,-100.00,SE,142,4.0,8.0,86,0.00,,,-99.99,,2013-03-08 07:01:00,
2013-03-08 02:11:00,31.0,28.0,-100.00,SSW,192,2.0,8.0,88,0.00,,,-99.99,,2013-03-08 07:11:00,
2013-03-08 02:22:00,29.0,27.0,-100.00,SE,129,2.0,8.0,88,0.00,,,-99.99,,2013-03-08 07:22:00,
2013-03-08 02:32:00,30.0,28.0,-100.00,SSE,148,4.0,8.0,89,0.00,,,-99.99,,2013-03-08 07:32:00,
2013-03-08 02:42:00,29.0,27.0,-100.00,SSE,156,3.0,8.0,88,0.00,,,-99.99,,2013-03-08 07:42:00,
2013-03-08 02:51:00,31.0,28.0,-100.00,South,183,2.0,8.0,89,0.00,,,-99.99,,2013-03-08 07:51:00,
2013-03-08 03:01:00,30.0,28.0,-100.00,SSE,162,4.0,8.0,89,0.00,,,-99.99,,2013-03-08 08:01:00,
2013-03-08 03:11:00,30.0,28.0,-100.00,SSE,163,2.0,8.0,88,0.00,,,-99.99,,2013-03-08 08:11:00,
2013-03-08 03:22:00,31.0,28.0,-100.00,South,184,2.0,8.0,88,0.00,,,-99.99,,2013-03-08 08:22:00,
2013-03-08 03:32:00,32.0,30.0,-100.00,SSE,151,1.0,8.0,90,0.00,,,-99.99,,2013-03-08 08:32:00,
2013-03-08 03:42:00,30.0,28.0,-100.00,SE,132,2.0,8.0,88,0.00,,,-99.99,,2013-03-08 08:42:00,
2013-03-08 03:52:00,31.0,30.0,-100.00,SE,136,3.0,8.0,90,0.00,,,-99.99,,2013-03-08 08:52:00,
2013-03-08 04:03:00,31.0,30.0,-100.00,South,175,3.0,8.0,89,0.00,,,-99.99,,2013-03-08 09:03:00,
2013-03-08 04:11:00,32.0,30.0,-100.00,SSE,159,4.0,8.0,90,0.00,,,-99.99,,2013-03-08 09:11:00,
2013-03-08 04:21:00,33.0,30.0,-100.00,ESE,122,4.0,8.0,90,0.00,,,-99.99,,2013-03-08 09:21:00,
2013-03-08 04:32:00,30.0,28.0,-100.00,SE,139,2.0,8.0,89,0.00,,,-99.99,,2013-03-08 09:32:00,
2013-03-08 04:42:00,33.0,32.0,-100.00,SE,135,2.0,8.0,91,0.00,,,-99.99,,2013-03-08 09:42:00,
2013-03-08 04:52:00,32.0,30.0,-100.00,SSE,168,3.0,8.0,91,0.00,,,-99.99,,2013-03-08 09:52:00,
2013-03-08 05:01:00,31.0,28.0,-100.00,South,173,3.0,8.0,90,0.00,,,-99.99,,2013-03-08 10:01:00,
2013-03-08 05:11:00,32.0,30.0,-100.00,SSE,159,4.0,8.0,91,0.00,,,-99.99,,2013-03-08 10:11:00,
2013-03-08 05:21:00,30.0,28.0,-100.00,South,173,4.0,8.0,90,0.00,,,-99.99,,2013-03-08 10:21:00,
2013-03-08 05:32:00,30.0,28.0,-100.00,South,189,4.0,8.0,90,0.00,,,-99.99,,2013-03-08 10:32:00,
2013-03-08 05:42:00,30.0,28.0,-100.00,SSE,149,4.0,8.0,90,0.00,,,-99.99,,2013-03-08 10:42:00,
2013-03-08 05:51:00,33.0,32.0,-100.00,SSE,165,4.0,8.0,93,0.00,,,-99.99,,2013-03-08 10:51:00,
2013-03-08 06:01:00,33.0,32.0,-100.00,SE,128,3.0,8.0,93,0.00,,,-99.99,,2013-03-08 11:01:00,
2013-03-08 06:11:00,32.0,32.0,-100.00,SSW,203,2.0,8.0,93,0.00,,,-99.99,,2013-03-08 11:11:00,
2013-03-08 06:21:00,31.0,28.0,-100.00,South,169,4.0,8.0,90,0.00,,,-99.99,,2013-03-08 11:21:00,
2013-03-08 06:32:00,31.0,28.0,-100.00,SSW,194,5.0,8.0,91,0.00,,,-99.99,,2013-03-08 11:32:00,
2013-03-08 06:42:00,33.0,32.0,-100.00,South,183,6.0,8.0,94,0.00,,,-99.99,,2013-03-08 11:42:00,
2013-03-08 06:52:00,32.0,32.0,-100.00,South,175,2.0,8.0,93,0.00,,,-99.99,,2013-03-08 11:52:00,
2013-03-08 07:02:00,33.0,32.0,-100.00,SSW,197,4.0,8.0,95,0.00,,,-99.99,,2013-03-08 12:02:00,
2013-03-08 07:11:00,33.0,32.0,-100.00,SSW,197,4.0,8.0,95,0.00,,,-99.99,,2013-03-08 12:11:00,
2013-03-08 07:22:00,32.0,32.0,-100.00,South,180,5.0,8.0,94,0.00,,,-99.99,,2013-03-08 12:22:00,
2013-03-08 07:32:00,32.0,32.0,-100.00,SSW,206,4.0,8.0,94,0.00,,,-99.99,,2013-03-08 12:32:00,
2013-03-08 07:43:00,32.0,32.0,-100.00,SSW,192,4.0,8.0,94,0.00,,,-99.99,,2013-03-08 12:43:00,
2013-03-08 07:52:00,32.0,32.0,-100.00,South,189,2.0,8.0,93,0.00,,,-99.99,,2013-03-08 12:52:00,
2013-03-08 08:01:00,33.0,32.0,-100.00,SSE,155,2.0,8.0,94,0.00,,,-99.99,,2013-03-08 13:01:00,
2013-03-08 08:11:00,33.0,32.0,-100.00,SSE,149,4.0,8.0,91,0.00,,,-99.99,,2013-03-08 13:11:00,
2013-03-08 08:22:00,31.0,30.0,-100.00,SSW,210,3.0,8.0,93,0.00,,,-99.99,,2013-03-08 13:22:00,
2013-03-08 08:32:00,31.0,30.0,-100.00,South,175,1.0,8.0,93,0.00,,,-99.99,,2013-03-08 13:32:00,
2013-03-08 08:42:00,30.0,28.0,-100.00,SSW,194,1.0,8.0,91,0.00,,,-99.99,,2013-03-08 13:42:00,
2013-03-08 08:52:00,30.0,28.0,-100.00,South,187,1.0,8.0,91,0.00,,,-99.99,,2013-03-08 13:52:00,
2013-03-08 09:03:00,33.0,32.0,-100.00,SE,132,2.0,8.0,93,0.00,,,-99.99,,2013-03-08 14:03:00,
2013-03-08 09:12:00,34.0,32.0,-100.00,SSE,162,2.0,8.0,93,0.00,,,-99.99,,2013-03-08 14:12:00,
2013-03-08 09:22:00,33.0,32.0,-100.00,South,176,1.0,8.0,93,0.00,,,-99.99,,2013-03-08 14:22:00,
2013-03-08 09:32:00,34.0,32.0,-100.00,SE,145,1.0,8.0,91,0.00,,,-99.99,,2013-03-08 14:32:00,
2013-03-08 09:42:00,35.0,32.0,-100.00,SE,139,1.0,8.0,91,0.00,,,-99.99,,2013-03-08 14:42:00,
2013-03-08 09:52:00,35.0,32.0,-100.00,South,179,2.0,8.0,91,0.00,,,-99.99,,2013-03-08 14:52:00,
2013-03-08 10:03:00,35.0,32.0,-100.00,SSE,159,5.0,8.0,93,0.00,,,-99.99,,2013-03-08 15:03:00,
2013-03-08 10:12:00,34.0,32.0,-100.00,South,184,4.0,8.0,91,0.00,,,-99.99,,2013-03-08 15:12:00,
2013-03-08 10:22:00,35.0,32.0,-100.00,SSW,194,2.0,8.0,93,0.00,,,-99.99,,2013-03-08 15:22:00,
2013-03-08 10:32:00,35.0,32.0,-100.00,SW,216,4.0,8.0,93,0.00,,,-99.99,,2013-03-08 15:32:00,
2013-03-08 10:42:00,36.0,32.0,-100.00,SE,139,2.0,8.0,91,0.00,,,-99.99,,2013-03-08 15:42:00,
2013-03-08 10:53:00,36.0,32.0,-100.00,SSE,160,4.0,8.0,91,0.00,,,-99.99,,2013-03-08 15:53:00,
2013-03-08 11:01:00,35.0,32.0,-100.00,SSE,165,2.0,8.0,91,0.00,,,-99.99,,2013-03-08 16:01:00,
2013-03-08 11:11:00,35.0,32.0,-100.00,SSE,151,1.0,8.0,91,0.00,,,-99.99,,2013-03-08 16:11:00,
2013-03-08 11:22:00,35.0,32.0,-100.00,South,184,3.0,8.0,90,0.00,,,-99.99,,2013-03-08 16:22:00,
2013-03-08 11:32:00,36.0,34.0,-100.00,South,186,3.0,8.0,91,0.00,,,-99.99,,2013-03-08 16:32:00,
2013-03-08 11:42:00,39.0,36.0,-100.00,South,169,3.0,8.0,90,0.00,,,-99.99,,2013-03-08 16:42:00,
2013-03-08 11:52:00,36.0,32.0,-100.00,SSW,192,3.0,8.0,90,0.00,,,-99.99,,2013-03-08 16:52:00,
2013-03-08 12:03:00,37.0,32.0,-100.00,SSW,197,4.0,8.0,89,0.00,,,-99.99,,2013-03-08 17:03:00,
2013-03-08 12:12:00,34.0,32.0,-100.00,South,190,3.0,8.0,88,0.00,,,-99.99,,2013-03-08 17:12:00,
2013-03-08 12:22:00,37.0,34.0,-100.00,SSE,166,2.0,8.0,89,0.00,,,-99.99,,2013-03-08 17:22:00,
2013-03-08 12:32:00,37.0,32.0,-100.00,SSE,162,2.0,8.0,88,0.00,,,-99.99,,2013-03-08 17:32:00,
2013-03-08 12:42:00,35.0,32.0,-100.00,SSW,211,2.0,8.0,84,0.00,,,-99.99,,2013-03-08 17:42:00,
2013-03-08 12:52:00,38.0,34.0,-100.00,SW,217,4.0,8.0,85,0.00,,,-99.99,,2013-03-08 17:52:00,
2013-03-08 13:02:00,36.0,32.0,-100.00,SSW,200,5.0,8.0,81,0.00,,,-99.99,,2013-03-08 18:02:00,
2013-03-08 13:12:00,37.0,32.0,-100.00,South,189,4.0,8.0,78,0.00,,,-99.99,,2013-03-08 18:12:00,
2013-03-08 13:22:00,38.0,32.0,-100.00,SSW,207,5.0,8.0,75,0.00,,,-99.99,,2013-03-08 18:22:00,
2013-03-08 13:32:00,38.0,32.0,-100.00,SSE,165,4.0,8.0,75,0.00,,,-99.99,,2013-03-08 18:32:00,
2013-03-08 13:42:00,38.0,30.0,-100.00,SSE,153,6.0,10.0,72,0.00,,,-99.99,,2013-03-08 18:42:00,
2013-03-08 13:52:00,38.0,30.0,-100.00,SSW,200,6.0,10.0,72,0.00,,,-99.99,,2013-03-08 18:52:00,
2013-03-08 14:01:00,38.0,30.0,-100.00,SE,131,6.0,10.0,69,0.00,,,-99.99,,2013-03-08 19:01:00,
2013-03-08 14:11:00,40.0,30.0,-100.00,South,175,5.0,10.0,66,0.00,,,-99.99,,2013-03-08 19:11:00,
2013-03-08 14:22:00,39.0,27.0,-100.00,SSW,207,5.0,10.0,60,0.00,,,-99.99,,2013-03-08 19:22:00,
2013-03-08 14:32:00,39.0,27.0,-100.00,South,186,6.0,10.0,59,0.00,,,-99.99,,2013-03-08 19:32:00,
2013-03-08 14:42:00,40.0,27.0,-100.00,South,172,6.0,10.0,56,0.00,,,-99.99,,2013-03-08 19:42:00,
2013-03-08 14:52:00,39.0,27.0,-100.00,SW,223,6.0,10.0,58,0.00,,,-99.99,,2013-03-08 19:52:00,
2013-03-08 15:01:00,40.0,27.0,-100.00,South,170,6.0,10.0,56,0.00,,,-99.99,,2013-03-08 20:01:00,
2013-03-08 15:11:00,40.0,27.0,-100.00,South,187,7.0,10.0,58,0.00,,,-99.99,,2013-03-08 20:11:00,
2013-03-08 15:22:00,40.0,27.0,-100.00,SSW,196,7.0,10.0,59,0.00,,,-99.99,,2013-03-08 20:22:00,
2013-03-08 15:32:00,40.0,28.0,-100.00,South,186,5.0,10.0,60,0.00,,,-99.99,,2013-03-08 20:32:00,
2013-03-08 15:42:00,40.0,27.0,-100.00,WSW,258,6.0,10.0,55,0.00,,,-99.99,,2013-03-08 20:42:00,
2013-03-08 15:53:00,39.0,25.0,-100.00,South,176,5.0,10.0,56,0.00,,,-99.99,,2013-03-08 20:53:00,
2013-03-08 16:02:00,40.0,28.0,-100.00,SSW,201,6.0,10.0,62,0.00,,,-99.99,,2013-03-08 21:02:00,
2013-03-08 16:11:00,38.0,28.0,-100.00,SW,224,4.0,10.0,63,0.00,,,-99.99,,2013-03-08 21:11:00,
2013-03-08 16:22:00,38.0,27.0,-100.00,South,169,4.0,4.0,59,0.00,,,-99.99,,2013-03-08 21:22:00,
2013-03-08 16:32:00,41.0,28.0,-100.00,South,169,4.0,6.0,60,0.00,,,-99.99,,2013-03-08 21:32:00,
2013-03-08 16:42:00,39.0,27.0,-100.00,SSW,207,5.0,6.0,59,0.00,,,-99.99,,2013-03-08 21:42:00,
2013-03-08 16:52:00,38.0,27.0,-100.00,South,183,6.0,6.0,62,0.00,,,-99.99,,2013-03-08 21:52:00,
2013-03-08 17:01:00,38.0,28.0,-100.00,South,176,4.0,6.0,67,0.00,,,-99.99,,2013-03-08 22:01:00,
2013-03-08 17:11:00,39.0,30.0,-100.00,South,186,2.0,6.0,69,0.00,,,-99.99,,2013-03-08 22:11:00,
2013-03-08 17:22:00,38.0,30.0,-100.00,SE,145,2.0,6.0,69,0.00,,,-99.99,,2013-03-08 22:22:00,
2013-03-08 17:32:00,36.0,28.0,-100.00,South,175,4.0,6.0,72,0.00,,,-99.99,,2013-03-08 22:32:00,
2013-03-08 17:42:00,37.0,30.0,-100.00,SSW,200,3.0,6.0,75,0.00,,,-99.99,,2013-03-08 22:42:00,
2013-03-08 17:52:00,37.0,30.0,-100.00,South,189,3.0,6.0,75,0.00,,,-99.99,,2013-03-08 22:52:00,
2013-03-08 18:02:00,36.0,30.0,-100.00,SSW,199,2.0,6.0,75,0.00,,,-99.99,,2013-03-08 23:02:00,
2013-03-08 18:12:00,36.0,30.0,-100.00,SSE,158,1.0,6.0,75,0.00,,,-99.99,,2013-03-08 23:12:00,
2013-03-08 18:22:00,36.0,30.0,-100.00,South,170,1.0,6.0,77,0.00,,,-99.99,,2013-03-08 23:22:00,
2013-03-08 18:32:00,36.0,30.0,-100.00,SW,218,2.0,6.0,75,0.00,,,-99.99,,2013-03-08 23:32:00,
2013-03-08 18:42:00,37.0,30.0,-100.00,South,189,2.0,6.0,76,0.00,,,-99.99,,2013-03-08 23:42:00,
2013-03-08 18:52:00,36.0,30.0,-100.00,SSW,210,1.0,6.0,76,0.00,,,-99.99,,2013-03-08 23:52:00,
2013-03-08 19:02:00,36.0,30.0,-100.00,South,173,1.0,6.0,77,0.00,,,-99.99,,2013-03-09 00:02:00,
2013-03-08 19:12:00,37.0,30.0,-100.00,SE,146,1.0,6.0,77,0.00,,,-99.99,,2013-03-09 00:12:00,
2013-03-08 19:22:00,36.0,30.0,-100.00,SE,125,1.0,6.0,77,0.00,,,-99.99,,2013-03-09 00:22:00,
2013-03-08 19:32:00,36.0,30.0,-100.00,South,187,1.0,6.0,78,0.00,,,-99.99,,2013-03-09 00:32:00,
2013-03-08 19:42:00,34.0,28.0,-100.00,South,176,1.0,6.0,78,0.00,,,-99.99,,2013-03-09 00:42:00,
2013-03-08 19:52:00,37.0,32.0,-100.00,SSE,153,1.0,6.0,80,0.00,,,-99.99,,2013-03-09 00:52:00,
2013-03-08 20:02:00,34.0,30.0,-100.00,SW,216,0.0,6.0,81,0.00,,,-99.99,,2013-03-09 01:02:00,
2013-03-08 20:12:00,34.0,30.0,-100.00,South,190,0.0,6.0,82,0.00,,,-99.99,,2013-03-09 01:12:00,
2013-03-08 20:22:00,37.0,32.0,-100.00,SE,138,0.0,6.0,81,0.00,,,-99.99,,2013-03-09 01:22:00,
2013-03-08 20:32:00,34.0,30.0,-100.00,SSE,151,1.0,6.0,82,0.00,,,-99.99,,2013-03-09 01:32:00,
2013-03-08 20:42:00,34.0,30.0,-100.00,South,189,0.0,6.0,82,0.00,,,-99.99,,2013-03-09 01:42:00,
2013-03-08 20:51:00,34.0,30.0,-100.00,SE,134,1.0,6.0,84,0.00,,,-99.99,,2013-03-09 01:51:00,
2013-03-08 21:01:00,34.0,30.0,-100.00,SSE,151,1.0,6.0,84,0.00,,,-99.99,,2013-03-09 02:01:00,
2013-03-08 21:11:00,33.0,30.0,-100.00,SSE,168,1.0,6.0,85,0.00,,,-99.99,,2013-03-09 02:11:00,
2013-03-08 21:21:00,34.0,30.0,-100.00,SSE,168,1.0,6.0,85,0.00,,,-99.99,,2013-03-09 02:21:00,
2013-03-08 21:31:00,34.0,32.0,-100.00,SSE,166,0.0,6.0,86,0.00,,,-99.99,,2013-03-09 02:31:00,
2013-03-08 21:41:00,33.0,30.0,-100.00,SSW,193,1.0,6.0,86,0.00,,,-99.99,,2013-03-09 02:41:00,
2013-03-08 21:51:00,33.0,30.0,-100.00,South,169,0.0,6.0,86,0.00,,,-99.99,,2013-03-09 02:51:00,
2013-03-08 22:01:00,33.0,30.0,-100.00,SSE,165,0.0,6.0,86,0.00,,,-99.99,,2013-03-09 03:01:00,
2013-03-08 22:11:00,32.0,30.0,-100.00,SSE,155,0.0,6.0,89,0.00,,,-99.99,,2013-03-09 03:11:00,
2013-03-08 22:21:00,32.0,30.0,-100.00,SSW,194,0.0,6.0,89,0.00,,,-99.99,,2013-03-09 03:21:00,
2013-03-08 22:31:00,32.0,30.0,-100.00,SSE,152,0.0,6.0,89,0.00,,,-99.99,,2013-03-09 03:31:00,
2013-03-08 22:41:00,32.0,30.0,-100.00,SSE,152,0.0,6.0,89,0.00,,,-99.99,,2013-03-09 03:41:00,
2013-03-08 22:52:00,31.0,28.0,-100.00,SSE,151,0.0,6.0,90,0.00,,,-99.99,,2013-03-09 03:52:00,
2013-03-08 23:01:00,31.0,30.0,-100.00,SE,136,1.0,6.0,90,0.00,,,-99.99,,2013-03-09 04:01:00,
2013-03-08 23:11:00,30.0,28.0,-100.00,SE,128,0.0,6.0,90,0.00,,,-99.99,,2013-03-09 04:11:00,
2013-03-08 23:22:00,32.0,30.0,-100.00,ESE,122,0.0,6.0,90,0.00,,,-99.99,,2013-03-09 04:22:00,
2013-03-08 23:32:00,32.0,30.0,-100.00,ESE,105,0.0,6.0,91,0.00,,,-99.99,,2013-03-09 04:32:00,
2013-03-08 23:42:00,33.0,32.0,-100.00,ENE,64,0.0,6.0,91,0.00,,,-99.99,,2013-03-09 04:42:00,
2013-03-08 23:51:00,31.0,30.0,-100.00,WNW,303,0.0,6.0,91,0.00,,,-99.99,,2013-03-09 04:51:00,